Kincheloe, MI

2:47 PM EST on February 24, 2017 (GMT -0500)
Chippewa County International

Weather History for KCIU - October, 2011

Change the Weather History Date:

Thursday, October 13, 2011

  Actual Average Record
Temperature  
Mean Temperature 56 °F -  
Max Temperature 59 °F 53 °F 75 °F (2008)
Min Temperature 53 °F 36 °F 24 °F (1993)
Degree Days  
Heating Degree Days 9    
Growing Degree Days 6 (Base 50)    
Moisture  
Dew Point 52 °F    
Average Humidity 85    
Maximum Humidity 88    
Minimum Humidity 77    
Precipitation  
Precipitation 0.00 in - - ()
Sea Level Pressure  
Sea Level Pressure 29.62 in    
Wind  
Wind Speed 8 mph (East)    
Max Wind Speed 14 mph    
Max Gust Speed -    
Visibility 10 miles    
Events      
Averages and records for this station are not official NWS values.
T = Trace of Precipitation, MM = Missing Value Source: NWS Daily Summary

Daily Weather History Graph

Daily Weather History Graph

Search for Another Location

Airport or City:

Trip Planner

Search our weather history database for the weather conditions in past years. The results will help you decide how hot, cold, wet, or windy it might be!

Date:

Astronomy

Oct. 13, 2011 Rise Set
Actual Time 7:51 AM EDT 6:55 PM EDT
Civil Twilight 7:21 AM EDT 7:25 PM EDT
Nautical Twilight 6:46 AM EDT 8:00 PM EDT
Astronomical Twilight 6:12 AM EDT 8:35 PM EDT
Moon 7:20 PM EDT (10/13) 9:32 AM EDT (10/13)
Length of Visible Light 12h 03m
Length of Day
11h 03m
Full, 98% of the Moon is Illuminated
Oct 13
Full
Oct 19
Last Quarter
Oct 26
New
Nov 2
First Quarter
Nov 10
Full

Hourly Weather History & Observations

Time (EDT) Temp. Dew Point Humidity Pressure Visibility Wind Dir Wind Speed Gust Speed Precip Events Conditions
12:55 AM 53.6 °F 48.2 °F 82% 29.80 in 10.0 mi ESE 8.1 mph - N/A   Clear
1:15 AM 55.4 °F 48.2 °F 77% 29.80 in 10.0 mi ESE 9.2 mph - N/A   Partly Cloudy
1:35 AM 55.4 °F 50.0 °F 82% 29.80 in 10.0 mi ESE 6.9 mph - N/A   Mostly Cloudy
1:55 AM 55.4 °F 50.0 °F 82% 29.79 in 10.0 mi ESE 6.9 mph - N/A   Overcast
2:15 AM 55.4 °F 50.0 °F 82% 29.79 in 10.0 mi ESE 5.8 mph - N/A   Overcast
2:35 AM 55.4 °F 50.0 °F 82% 29.78 in 10.0 mi ESE 6.9 mph - N/A   Overcast
2:55 AM 55.4 °F 51.8 °F 88% 29.78 in 10.0 mi ESE 6.9 mph - N/A   Overcast
3:15 AM 55.4 °F 51.8 °F 88% 29.76 in 10.0 mi ESE 9.2 mph - N/A   Overcast
3:35 AM 55.4 °F 51.8 °F 88% 29.76 in 10.0 mi ESE 6.9 mph - N/A   Overcast
4:15 AM 55.4 °F 51.8 °F 88% 29.75 in 10.0 mi ESE 5.8 mph - N/A   Overcast
4:35 AM 55.4 °F 51.8 °F 88% 29.74 in 10.0 mi East 4.6 mph - N/A   Overcast
4:55 AM 55.4 °F 51.8 °F 88% 29.73 in 10.0 mi ENE 4.6 mph - N/A   Overcast
5:15 AM 55.4 °F 51.8 °F 88% 29.73 in 10.0 mi East 3.5 mph - N/A   Overcast
5:35 AM 55.4 °F 51.8 °F 88% 29.72 in 10.0 mi ENE 4.6 mph - N/A   Overcast
6:15 AM 55.4 °F 51.8 °F 88% 29.71 in 10.0 mi NE 6.9 mph - N/A   Overcast
6:35 AM 55.4 °F 51.8 °F 88% 29.70 in 10.0 mi ENE 6.9 mph - N/A   Overcast
6:55 AM 55.4 °F 51.8 °F 88% 29.70 in 10.0 mi ENE 5.8 mph - N/A   Overcast
7:15 AM 55.4 °F 51.8 °F 88% 29.69 in 10.0 mi NE 4.6 mph - N/A   Overcast
7:35 AM 55.4 °F 51.8 °F 88% 29.69 in 10.0 mi ENE 6.9 mph - N/A   Overcast
7:55 AM 55.4 °F 51.8 °F 88% 29.68 in 10.0 mi ENE 6.9 mph - N/A   Overcast
8:35 AM 55.4 °F 51.8 °F 88% 29.67 in 10.0 mi NE 5.8 mph - N/A   Overcast
8:55 AM 55.4 °F 51.8 °F 88% 29.67 in 10.0 mi East 8.1 mph - N/A   Overcast
9:15 AM 55.4 °F 51.8 °F 88% 29.67 in 10.0 mi East 8.1 mph - N/A   Overcast
9:35 AM 55.4 °F 51.8 °F 88% 29.66 in 10.0 mi East 8.1 mph - N/A   Overcast
9:55 AM 55.4 °F 51.8 °F 88% 29.66 in 10.0 mi East 5.8 mph - N/A   Overcast
10:15 AM 57.2 °F 51.8 °F 82% 29.65 in 10.0 mi East 9.2 mph - N/A   Overcast
10:35 AM 57.2 °F 51.8 °F 82% 29.64 in 10.0 mi East 8.1 mph - N/A   Overcast
10:55 AM 57.2 °F 51.8 °F 82% 29.64 in 9.0 mi East 11.5 mph - N/A   Overcast
11:35 AM 57.2 °F 51.8 °F 82% 29.63 in 10.0 mi East 8.1 mph - N/A   Overcast
11:55 AM 57.2 °F 51.8 °F 82% 29.62 in 8.0 mi ESE 9.2 mph - N/A   Overcast
12:15 PM 55.4 °F 51.8 °F 88% 29.61 in 5.0 mi ESE 10.4 mph - N/A   Overcast
12:35 PM 55.4 °F 51.8 °F 88% 29.61 in 10.0 mi ESE 8.1 mph - N/A   Overcast
12:55 PM 55.4 °F 51.8 °F 88% 29.60 in 10.0 mi SE 6.9 mph - N/A   Overcast
1:15 PM 55.4 °F 51.8 °F 88% 29.59 in 7.0 mi SE 6.9 mph - N/A   Overcast
1:35 PM 57.2 °F 51.8 °F 82% 29.58 in 7.0 mi East 8.1 mph - N/A   Overcast
1:55 PM 57.2 °F 51.8 °F 82% 29.57 in 10.0 mi East 8.1 mph - N/A   Overcast
2:15 PM 57.2 °F 53.6 °F 88% 29.56 in 10.0 mi SE 8.1 mph - N/A   Overcast
2:55 PM 59.0 °F 51.8 °F 77% 29.55 in 10.0 mi ESE 10.4 mph - N/A   Overcast
3:15 PM 57.2 °F 51.8 °F 82% 29.54 in 10.0 mi ESE 10.4 mph - N/A   Overcast
3:55 PM 57.2 °F 51.8 °F 82% 29.53 in 10.0 mi ESE 11.5 mph - N/A   Overcast
4:15 PM 57.2 °F 51.8 °F 82% 29.53 in 10.0 mi East 9.2 mph - N/A   Overcast
4:35 PM 57.2 °F 51.8 °F 82% 29.52 in 10.0 mi East 8.1 mph - N/A   Overcast
4:55 PM 57.2 °F 51.8 °F 82% 29.52 in 10.0 mi ESE 9.2 mph - N/A   Overcast
5:15 PM 57.2 °F 51.8 °F 82% 29.51 in 10.0 mi East 11.5 mph - N/A   Overcast
5:35 PM 59.0 °F 51.8 °F 77% 29.51 in 10.0 mi ESE 10.4 mph - N/A   Overcast
6:15 PM 57.2 °F 51.8 °F 82% 29.50 in 10.0 mi ESE 10.4 mph - N/A   Overcast
6:35 PM 57.2 °F 51.8 °F 82% 29.50 in 10.0 mi ESE 8.1 mph - N/A   Overcast
6:55 PM 57.2 °F 51.8 °F 82% 29.50 in 10.0 mi ESE 8.1 mph - N/A   Overcast
7:15 PM 57.2 °F 51.8 °F 82% 29.49 in 10.0 mi ESE 9.2 mph - N/A   Overcast
7:35 PM 57.2 °F 51.8 °F 82% 29.49 in 10.0 mi ESE 8.1 mph - N/A   Overcast
8:35 PM 55.4 °F 51.8 °F 88% 29.49 in 10.0 mi ESE 11.5 mph - N/A   Overcast
8:55 PM 55.4 °F 51.8 °F 88% 29.48 in 10.0 mi ESE 10.4 mph - N/A   Overcast
9:15 PM 55.4 °F 51.8 °F 88% 29.47 in 10.0 mi East 6.9 mph - N/A   Mostly Cloudy
9:35 PM 55.4 °F 51.8 °F 88% 29.46 in 10.0 mi East 9.2 mph - N/A   Scattered Clouds
9:55 PM 55.4 °F 51.8 °F 88% 29.46 in 10.0 mi East 11.5 mph - N/A   Mostly Cloudy
10:15 PM 55.4 °F 51.8 °F 88% 29.46 in 10.0 mi ESE 13.8 mph - N/A   Overcast
10:35 PM 55.4 °F 51.8 °F 88% 29.46 in 9.0 mi ESE 12.7 mph - N/A   Overcast
10:55 PM 55.4 °F 51.8 °F 88% 29.45 in 9.0 mi East 10.4 mph - N/A   Overcast
11:15 PM 55.4 °F 51.8 °F 88% 29.44 in 9.0 mi ESE 10.4 mph - N/A   Overcast